View from above orbital plane
|
View from above satellite
|
Ground track
|
The orbit data is extracted from the following two-line orbital elements,
1 13067U 82013A 21106.62934450 .00000838 00000-0 36331-4 0 9993
2 13067 81.1836 300.3160 0004034 126.8763 233.2839 15.21292565140444
Epoch (UTC): | 16 April 2021 15:06:15 |
Eccentricity: | 0.0004034 |
inclination: | 81.1836° |
perigee height: | 499 km |
apogee height: | 505 km |
right ascension of ascending node: | 300.3160° |
argument of perigee: | 126.8763° |
revolutions per day: | 15.21292565 |
mean anomaly at epoch: | 233.2839° |
orbit number at epoch: | 14044 |
The dashed part of the orbit path shows where the satellite is in the earth's shadow,
|
|